Regional Weather Roundup
Issued by NWS

Home | Current Version | Previous Version | Graphics & Text | Print | Product List | Glossary On
Versions: 1 2 3 4 5 6 7 8 9 10 11 12 13 14 15 16 17 18 19 20 21 22 23 24 25 26 27 28 29 30 31 32 33 34 35 36 37 38 39 40 41 42 43 44 45 46 47 48 49 50
000
ASUS43 KBIS 170310
RWRND

NORTH DAKOTA REGIONAL WEATHER ROUNDUP
NATIONAL WEATHER SERVICE BISMARCK ND
1000 PM CDT WED AUG 16 2017

NOTE: "FAIR" INDICATES FEW OR NO CLOUDS BELOW 12,000 FEET WITH NO
SIGNIFICANT WEATHER AND/OR OBSTRUCTIONS TO VISIBILITY.


NDZ001>003-009>011-017-170400-
NORTHWEST NORTH DAKOTA

CITY           SKY/WX    TMP DP  RH WIND       PRES   REMARKS
WILLISTON      CLOUDY    75  55  49 SE10      29.86S
MINOT          CLEAR     65  53  65 CALM      29.89R
MINOT AFB      CLEAR     63  54  72 S6        29.87S
$$

NDZ018>021-031>035-040>046-170400-
SOUTHWEST NORTH DAKOTA

CITY           SKY/WX    TMP DP  RH WIND       PRES   REMARKS
BISMARCK       CLOUDY    67  56  67 N6        29.90R
DICKINSON      CLEAR     63  54  72 SE7       29.91S
GARRISON         N/A     63  56  78 CALM      29.90R
HETTINGER ARPT CLEAR     64  53  67 SE6       29.95S
$$

NDZ004>008-012>016-024-026-027-054-170400-
NORTHEAST NORTH DAKOTA

CITY           SKY/WX    TMP DP  RH WIND       PRES   REMARKS
GRAND FORKS    CLOUDY    64  64 100 N6        29.82S
GRND FRKS AFB  CLOUDY    61  61 100 N6        29.84S
DEVILS LAKE    CLOUDY    61  58  90 N6        29.87S
$$

NDZ022-023-025-028>030-036>039-047>053-170400-
SOUTHEAST NORTH DAKOTA

CITY           SKY/WX    TMP DP  RH WIND       PRES   REMARKS
FARGO          CLOUDY    65  65 100 N9        29.79S
JAMESTOWN      PTCLDY    60  57  89 N7        29.85R
$$





USA.gov is the U.S. government's official web portal to all federal, state and local government web resources and services.